Regional Weather Roundup
Issued by NWS

Home | Current Version | Previous Version | Graphics & Text | Print | Product List | Glossary On
Versions: 1 2 3 4 5 6 7 8 9 10 11 12 13 14 15 16 17 18 19 20 21 22 23 24 25 26 27
000
ASUS45 KBOU 281007
RWRCO

WEATHER ROUNDUP FOR COLORADO
NATIONAL WEATHER SERVICE DENVER/BOULDER CO
400 AM MDT FRI JUL 28 2017

NOTE: "FAIR" INDICATES FEW OR NO CLOUDS BELOW 12000 FEET WITH NO
SIGNIFICANT WEATHER AND/OR OBSTRUCTIONS TO VISIBILITY.

COZ001>005-013-030-031-281100-
...NORTHWEST COLORADO...

CITY           SKY/WX    TMP DP  RH WIND       PRES   REMARKS
CRAIG          FAIR      54  50  86 CALM      30.24R
HAYDEN         FAIR      57  46  67 E9        30.26R
MEEKER         FAIR      57  50  77 E6        30.25R
RABBIT EARS PA FAIR      54  43  66 W5        30.54F
STEAMBOAT SPGS FAIR      51  48  89 CALM      30.28S
WALDEN         FAIR      45  39  81 SE5       30.37F
$$

COZ006>008-011-281100-
...WEST CENTRAL VALLEYS...

CITY           SKY/WX    TMP DP  RH WIND       PRES   REMARKS
GRAND JUNCTION FAIR      70  53  54 SE10      30.07S
MONTROSE       MOCLDY    67  52  58 SE7       30.17S
EAGLE          FAIR      58  48  69 CALM      30.29S
RIFLE          FAIR      64  54  69 CALM      30.16S
DELTA          FAIR      70  51  50 CALM      30.13S
NUCLA          FAIR      66  50  55 E9        30.24F
$$

COZ017>023-064>068-281100-
...SOUTHWEST COLORADO...

CITY           SKY/WX    TMP DP  RH WIND       PRES   REMARKS
DURANGO        MOCLDY    61  57  87 NE9       30.28F
CORTEZ         FAIR      64  56  75 CALM      30.22S
PAGOSA SPRINGS CLOUDY    61  53  75 E3        30.37F
TELLURIDE      FAIR      60  49  65 CALM      30.46S
WOLF CREEK PAS LGT RAIN  45  45 100 SW9       30.69F VSB<1/4
$$

COZ009-010-012-014-032>034-037-058>063-281100-
...CENTRAL COLORADO...

CITY           SKY/WX    TMP DP  RH WIND       PRES   REMARKS
ASPEN          FAIR      56  47  71 SW7       30.33S
BUENA VISTA    FAIR      56  51  85 CALM      30.36F
COPPER MTN     FAIR      54  39  58 W7        30.66F
BERTHOUD PASS  FAIR      45  34  65 NW16      30.69S
COTTONWOOD PAS FAIR      59  43  55 W6        30.49F
GUNNISON       FAIR      57  50  77 VRB5      30.36S
KREMMLING      FAIR      54  50  87 CALM      30.36R
LEADVILLE      FAIR      48  46  93 VRB3      30.47F
MONARCH PASS   FAIR      50  41  71 SW10      30.74F
SALIDA         FAIR      60  53  77 W9        30.40F
SUNLIGHT       FAIR      52  41  66 CALM      30.58F
WILKERSON PASS FAIR      52  41  66 NW6       30.62F
$$

COZ069>075-281100-
...SAN LUIS VALLEY/SANGRE DE CRISTO MOUNTAINS...

CITY           SKY/WX    TMP DP  RH WIND       PRES   REMARKS
ALAMOSA        FAIR      56  54  93 CALM      30.33S
DEL NORTE      FAIR      59  52  78 SW3       30.37S
LA VETA PASS   NOT AVBL
SAGUACHE         N/A    N/A N/A N/A MISG        N/A
$$

COZ035-036-038>040-281100-
...NORTHERN COLORADO FRONT RANGE...

CITY           SKY/WX    TMP DP  RH WIND       PRES   REMARKS
DENVER INTL AP FAIR      67  53  61 W6        30.11R
DMNS CITY PARK   N/A     67  54  63 E6        30.12R
AURORA         PTCLDY    66  55  67 SW3       30.14R
FRONT RANGE AP FAIR      66  55  68 SE8       30.13S
ERIE MUNI ARPT FAIR      62  58  87 CALM      30.11R
BOULDER MUN AP FAIR      68  57  68 N5        30.12R
CENTENNIAL     FAIR      70  52  52 SW8       30.15S
BROOMFIELD     FAIR      70  52  52 N12       30.14R
FORT COLLINS   FAIR      62  58  86 N10       30.12R
LONGMONT       FAIR      68  58  70 N7        30.12S
$$

COZ041-046-047-076>085-087-088-281100-
...PIKES PEAK/PALMER DIVIDE AND SOUTHERN FOOTHILLS...

CITY           SKY/WX    TMP DP  RH WIND       PRES   REMARKS
COLO. SPRINGS  CLOUDY    67  64  90 SE3       30.21F FOG
A. F. ACADEMY  CLOUDY    64  64 100 S6        30.22F
SCHRIEVER AFB  FOG       64  63  97 SE7       30.22S VSB 3/8
CHEYENNE MTN   MOCLDY    64  55  72 CALM      30.20F
ELLICOTT       CLOUDY   N/A N/A N/A SE6       30.20F
FALCON         FOG       63  62  98 S3        30.26S VSB<1/4
FORT CARSON    CLOUDY    66  66 100 E3        30.18F
LIMON          CLOUDY    64  64 100 S9        30.16S
MONUMENT HILL  FAIR      59  57  94 SW7       30.26S
CANON CITY     CLEAR     70  59  68 W7        30.16R
WALSENBURG     NOT AVBL
TRINIDAD       FAIR      62  53  72 SW13      30.18F
$$

COZ042>045-048>051-090-091-281100-
...NORTHEAST COLORADO...

CITY           SKY/WX    TMP DP  RH WIND       PRES   REMARKS
GREELEY ARPT   FAIR      63  61  93 N5        30.08F
AKRON          FAIR      65  60  84 S17       30.09F
BURLINGTON     FAIR      63  62  97 SE3       30.13R FOG
WRAY           NOT AVBL
YUMA           FAIR      61  52  72 S8        30.07S
STERLING       MOCLDY    64  63  94 E9        30.09S
HOLYOKE        CLOUDY    64  63  94 E10       30.11F
FORT MORGAN    FAIR      67  62  84 SE8       30.09S
$$

COZ086-089-092>099-281100-
...SOUTHEAST COLORADO...

CITY           SKY/WX    TMP DP  RH WIND       PRES   REMARKS
PUEBLO         FAIR      69  66  90 CALM      30.11S
LA JUNTA       FAIR      68  66  93 E5        30.09S FOG
LAMAR          MOCLDY    69  67  93 E6        30.07S FOG
SPRINGFIELD      N/A     64  64 100 SE3       30.12F
$$




USA.gov is the U.S. government's official web portal to all federal, state and local government web resources and services.